• In Uzbekistan
  • List of Countries
  • For 7 days
  • Water Temperature
  • Satellite Maps
  • Weather Map
  • Weather Widgets
  • user-avatar
    Login

    Hourly Weather Ropcha

    Today, 20 June, Wednesday

    Time Temperature Precipitation Wind Pressure Humidity
    00:00 +14°C° 0 mm 2 mps 738 mmHg 60%
    01:00 +14°C° 0 mm 2 mps 738 mmHg 61%
    02:00 +14°C° 0 mm 2 mps 737 mmHg 61%
    03:00 +14°C° 0 mm 2 mps 737 mmHg 61%
    04:00 +14°C° 0 mm 3 mps 736 mmHg 57%
    05:00 +17°C° 0 mm 3 mps 736 mmHg 52%
    06:00 +18°C° 0 mm 3 mps 735 mmHg 48%
    07:00 +20°C° 0 mm 3 mps 734 mmHg 46%
    08:00 +21°C° 0 mm 3 mps 733 mmHg 44%
    09:00 +23°C° 0 mm 4 mps 733 mmHg 42%
    10:00 +23°C° 0.2 mm 4 mps 732 mmHg 46%
    11:00 +23°C° 0.2 mm 4 mps 731 mmHg 50%
    12:00 +24°C° 0.2 mm 3 mps 730 mmHg 54%
    13:00 +21°C° 0.7 mm 3 mps 730 mmHg 65%
    14:00 +19°C° 0.7 mm 2 mps 729 mmHg 75%
    15:00 +18°C° 0.7 mm 2 mps 729 mmHg 86%
    16:00 +17°C° 0.8 mm 2 mps 728 mmHg 88%
    17:00 +18°C° 0.8 mm 1 mps 728 mmHg 91%
    18:00 +16°C° 0.8 mm 1 mps 728 mmHg 93%
    19:00 +16°C° 1.1 mm 1 mps 727 mmHg 94%
    20:00 +15°C° 1.1 mm 2 mps 727 mmHg 95%
    21:00 +14°C° 1.1 mm 2 mps 727 mmHg 96%
    22:00 +14°C° 1.5 mm 2 mps 726 mmHg 96%
    23:00 +12°C° 1.5 mm 3 mps 726 mmHg 96%

    Tomorrow, 21 June, Thursday

    Time Temperature Precipitation Wind Pressure Humidity
    00:00 +12°C° 1.5 mm 3 mps 726 mmHg 96%
    01:00 +12°C° 1.2 mm 3 mps 726 mmHg 96%
    02:00 +11°C° 1.2 mm 3 mps 725 mmHg 96%
    03:00 +11°C° 1.2 mm 3 mps 725 mmHg 96%
    04:00 +12°C° 0.3 mm 3 mps 726 mmHg 95%
    05:00 +13°C° 0.3 mm 2 mps 726 mmHg 94%
    06:00 +13°C° 0.3 mm 2 mps 726 mmHg 93%
    07:00 +15°C° 0 mm 2 mps 726 mmHg 87%
    08:00 +17°C° 0 mm 2 mps 727 mmHg 80%
    09:00 +19°C° 0 mm 2 mps 727 mmHg 73%
    10:00 +21°C° 0.1 mm 2 mps 728 mmHg 65%
    11:00 +23°C° 0.1 mm 2 mps 728 mmHg 57%
    12:00 +25°C° 0.1 mm 2 mps 729 mmHg 49%
    13:00 +25°C° 0.3 mm 2 mps 730 mmHg 48%
    14:00 +25°C° 0.3 mm 2 mps 730 mmHg 47%
    15:00 +25°C° 0.3 mm 2 mps 731 mmHg 47%
    16:00 +24°C° 0.1 mm 2 mps 731 mmHg 50%
    17:00 +22°C° 0.1 mm 3 mps 732 mmHg 53%
    18:00 +21°C° 0.1 mm 4 mps 732 mmHg 57%
    19:00 +20°C° 0 mm 4 mps 733 mmHg 63%
    20:00 +17°C° 0 mm 5 mps 733 mmHg 69%
    21:00 +16°C° 0 mm 5 mps 734 mmHg 74%
    22:00 +15°C° 0 mm 5 mps 734 mmHg 77%
    23:00 +15°C° 0 mm 5 mps 735 mmHg 79%

    Day after tomorrow, 22 June, Friday

    Time Temperature Precipitation Wind Pressure Humidity
    00:00 +14°C° 0 mm 4 mps 735 mmHg 82%
    01:00 +14°C° 0 mm 4 mps 736 mmHg 80%
    02:00 +14°C° 0 mm 4 mps 736 mmHg 79%
    03:00 +14°C° 0 mm 4 mps 737 mmHg 77%
    04:00 +14°C° 0 mm 5 mps 737 mmHg 73%
    05:00 +14°C° 0 mm 5 mps 738 mmHg 69%
    06:00 +15°C° 0 mm 5 mps 738 mmHg 65%
    07:00 +16°C° 0 mm 5 mps 738 mmHg 59%
    08:00 +17°C° 0 mm 5 mps 739 mmHg 53%
    09:00 +19°C° 0 mm 5 mps 739 mmHg 47%
    10:00 +21°C° 0 mm 5 mps 739 mmHg 43%
    11:00 +22°C° 0 mm 5 mps 739 mmHg 39%
    12:00 +23°C° 0 mm 5 mps 739 mmHg 35%
    13:00 +23°C° 0 mm 5 mps 740 mmHg 33%
    14:00 +23°C° 0 mm 5 mps 740 mmHg 31%
    15:00 +25°C° 0 mm 4 mps 740 mmHg 30%
    16:00 +23°C° 0 mm 4 mps 740 mmHg 31%
    17:00 +24°C° 0 mm 3 mps 741 mmHg 33%
    18:00 +24°C° 0 mm 3 mps 741 mmHg 34%
    19:00 +21°C° 0 mm 3 mps 741 mmHg 41%
    20:00 +19°C° 0 mm 2 mps 741 mmHg 47%
    21:00 +17°C° 0 mm 2 mps 742 mmHg 54%
    22:00 +16°C° 0 mm 2 mps 742 mmHg 55%
    23:00 +15°C° 0 mm 1 mps 742 mmHg 57%

    23 June, Saturday

    Time Temperature Precipitation Wind Pressure Humidity
    00:00 +14°C° 0 mm 1 mps 742 mmHg 59%
    01:00 +14°C° 0 mm 1 mps 742 mmHg 60%
    02:00 +14°C° 0 mm 1 mps 742 mmHg 61%
    03:00 +12°C° 0 mm 0 mps 742 mmHg 62%
    04:00 +14°C° 0 mm 0 mps 743 mmHg 57%
    05:00 +18°C° 0 mm 1 mps 743 mmHg 52%
    06:00 +20°C° 0 mm 1 mps 743 mmHg 47%
    07:00 +21°C° 0 mm 1 mps 743 mmHg 49%
    08:00 +22°C° 0 mm 1 mps 743 mmHg 50%
    09:00 +22°C° 0 mm 1 mps 743 mmHg 52%
    10:00 +23°C° 0.1 mm 1 mps 743 mmHg 53%
    11:00 +24°C° 0.1 mm 1 mps 743 mmHg 54%
    12:00 +25°C° 0.1 mm 1 mps 743 mmHg 56%
    13:00 +25°C° 0.3 mm 1 mps 743 mmHg 57%
    14:00 +25°C° 0.3 mm 1 mps 744 mmHg 59%
    15:00 +25°C° 0.3 mm 1 mps 744 mmHg 60%
    16:00 +25°C° 0.6 mm 2 mps 744 mmHg 66%
    17:00 +24°C° 0.6 mm 2 mps 744 mmHg 73%
    18:00 +23°C° 0.6 mm 2 mps 744 mmHg 79%
    19:00 +20°C° 0.7 mm 2 mps 744 mmHg 84%
    20:00 +19°C° 0.7 mm 2 mps 744 mmHg 88%
    21:00 +18°C° 0.7 mm 2 mps 744 mmHg 93%
    22:00 +17°C° 0 mm 2 mps 744 mmHg 94%
    23:00 +17°C° 0 mm 2 mps 744 mmHg 95%

    24 June, Sunday

    Time Temperature Precipitation Wind Pressure Humidity
    00:00 +16°C° 0 mm 1 mps 744 mmHg 96%
    01:00 +16°C° 0 mm 1 mps 744 mmHg 96%
    02:00 +16°C° 0 mm 1 mps 745 mmHg 96%
    03:00 +16°C° 0 mm 1 mps 745 mmHg 96%
    04:00 +19°C° 0 mm 1 mps 745 mmHg 91%
    05:00 +21°C° 0 mm 1 mps 745 mmHg 87%
    06:00 +20°C° 0 mm 0 mps 745 mmHg 82%
    07:00 +23°C° 0 mm 0 mps 745 mmHg 72%
    08:00 +25°C° 0 mm 0 mps 745 mmHg 62%
    09:00 +28°C° 0 mm 0 mps 745 mmHg 52%
    10:00 +31°C° 0 mm 1 mps 745 mmHg 47%
    11:00 +32°C° 0 mm 1 mps 744 mmHg 43%
    12:00 +32°C° 0 mm 1 mps 744 mmHg 39%
    13:00 +32°C° 0 mm 1 mps 744 mmHg 39%
    14:00 +32°C° 0 mm 1 mps 744 mmHg 40%
    15:00 +32°C° 0 mm 1 mps 744 mmHg 40%
    16:00 +31°C° 0 mm 1 mps 744 mmHg 44%
    17:00 +30°C° 0 mm 1 mps 743 mmHg 48%
    18:00 +29°C° 0 mm 1 mps 743 mmHg 52%
    19:00 +28°C° 0 mm 1 mps 743 mmHg 56%
    20:00 +26°C° 0 mm 1 mps 743 mmHg 60%
    21:00 +25°C° 0 mm 1 mps 743 mmHg 65%
    22:00 +24°C° 0 mm 1 mps 743 mmHg 68%
    23:00 +23°C° 0 mm 1 mps 743 mmHg 71%

    25 June, Monday

    Time Temperature Precipitation Wind Pressure Humidity
    00:00 +22°C° 0 mm 1 mps 743 mmHg 75%
    01:00 +22°C° 0 mm 1 mps 743 mmHg 76%
    02:00 +21°C° 0 mm 2 mps 743 mmHg 77%
    03:00 +21°C° 0 mm 2 mps 743 mmHg 78%
    04:00 +21°C° 0 mm 2 mps 743 mmHg 76%
    05:00 +22°C° 0 mm 3 mps 744 mmHg 74%
    06:00 +22°C° 0 mm 3 mps 744 mmHg 72%
    07:00 +22°C° 0 mm 3 mps 744 mmHg 68%
    08:00 +22°C° 0 mm 3 mps 744 mmHg 64%
    09:00 +22°C° 0 mm 3 mps 744 mmHg 60%
    10:00 +24°C° 0 mm 3 mps 744 mmHg 52%
    11:00 +25°C° 0 mm 3 mps 744 mmHg 45%
    12:00 +26°C° 0 mm 3 mps 745 mmHg 38%
    13:00 +26°C° 0 mm 3 mps 745 mmHg 37%
    14:00 +26°C° 0 mm 3 mps 745 mmHg 36%
    15:00 +26°C° 0 mm 3 mps 745 mmHg 35%
    16:00 +26°C° 0 mm 2 mps 745 mmHg 37%
    17:00 +26°C° 0 mm 2 mps 745 mmHg 38%
    18:00 +25°C° 0 mm 2 mps 745 mmHg 40%
    19:00 +24°C° 0 mm 2 mps 745 mmHg 46%
    20:00 +21°C° 0 mm 2 mps 745 mmHg 53%
    21:00 +19°C° 0 mm 2 mps 745 mmHg 59%
    22:00 +18°C° 0 mm 2 mps 745 mmHg 62%
    23:00 +18°C° 0 mm 1 mps 745 mmHg 65%
    Show more